Time,TemperatureF,DewpointF,PressureIn,WindDirection,WindDirectionDegrees,WindSpeedMPH,WindSpeedGustMPH,Humidity,HourlyPrecipIn,Conditions,Clouds,dailyrainin,SoftwareType,DateUTC
2013-02-16 00:03:00,5.5,0.4,30.36,WNW,289,0.0,4.0,79,0.00,,---,0.00,VWS V14.01,2013-02-16 06:03:00,
2013-02-16 00:08:00,5.4,0.3,30.36,WNW,289,0.0,4.0,79,0.00,,---,0.00,VWS V14.01,2013-02-16 06:08:00,
2013-02-16 00:13:00,5.0,-0.3,30.36,WNW,289,0.0,0.0,78,0.00,,---,0.00,VWS V14.01,2013-02-16 06:13:00,
2013-02-16 00:18:00,4.6,-0.7,30.36,WNW,289,0.0,1.0,78,0.00,,---,0.00,VWS V14.01,2013-02-16 06:18:00,
2013-02-16 00:23:00,4.2,-1.1,30.36,WNW,289,0.0,1.0,78,0.00,,---,0.00,VWS V14.01,2013-02-16 06:23:00,
2013-02-16 00:28:00,3.8,-1.2,30.36,WNW,289,0.0,0.0,79,0.00,,---,0.00,VWS V14.01,2013-02-16 06:28:00,
2013-02-16 00:33:00,3.5,-1.3,30.36,WNW,289,0.0,1.0,80,0.00,,---,0.00,VWS V14.01,2013-02-16 06:33:00,
2013-02-16 00:38:00,3.4,-1.4,30.36,WNW,288,0.0,1.0,80,0.00,,---,0.00,VWS V14.01,2013-02-16 06:38:00,
2013-02-16 00:43:00,3.3,-1.2,30.36,WNW,287,1.0,1.0,81,0.00,,---,0.00,VWS V14.01,2013-02-16 06:43:00,
2013-02-16 00:48:00,3.2,-1.0,30.36,WNW,287,1.0,2.0,82,0.00,,---,0.00,VWS V14.01,2013-02-16 06:48:00,
2013-02-16 00:53:00,3.2,-1.0,30.36,WNW,282,0.0,2.0,82,0.00,,---,0.00,VWS V14.01,2013-02-16 06:53:00,
2013-02-16 00:58:00,3.2,-1.0,30.36,WNW,282,0.0,1.0,82,0.00,,---,0.00,VWS V14.01,2013-02-16 06:58:00,
2013-02-16 01:03:00,3.1,-1.1,30.36,West,277,0.0,2.0,82,0.00,,---,0.00,VWS V14.01,2013-02-16 07:03:00,
2013-02-16 01:08:00,3.0,-1.2,30.36,West,275,0.0,2.0,82,0.00,,---,0.00,VWS V14.01,2013-02-16 07:08:00,
2013-02-16 01:13:00,3.0,-1.0,30.36,West,270,0.0,1.0,83,0.00,,---,0.00,VWS V14.01,2013-02-16 07:13:00,
2013-02-16 01:18:00,2.8,-1.2,30.36,West,270,2.0,3.0,83,0.00,,---,0.00,VWS V14.01,2013-02-16 07:18:00,
2013-02-16 01:23:00,2.7,-1.3,30.36,West,263,1.0,3.0,83,0.00,,---,0.00,VWS V14.01,2013-02-16 07:23:00,
2013-02-16 01:28:00,2.7,-1.3,30.36,West,275,0.0,1.0,83,0.00,,---,0.00,VWS V14.01,2013-02-16 07:28:00,
2013-02-16 01:33:00,2.7,-1.3,30.36,WNW,284,0.0,2.0,83,0.00,,---,0.00,VWS V14.01,2013-02-16 07:33:00,
2013-02-16 01:38:00,2.6,-1.4,30.36,West,279,0.0,2.0,83,0.00,,---,0.00,VWS V14.01,2013-02-16 07:38:00,
2013-02-16 01:43:00,2.5,-1.5,30.36,West,280,0.0,1.0,83,0.00,,---,0.00,VWS V14.01,2013-02-16 07:43:00,
2013-02-16 01:48:00,2.5,-1.5,30.36,WSW,252,1.0,2.0,83,0.00,,---,0.00,VWS V14.01,2013-02-16 07:48:00,
2013-02-16 01:53:00,2.5,-1.2,30.36,WSW,252,0.0,2.0,84,0.00,,---,0.00,VWS V14.01,2013-02-16 07:53:00,
2013-02-16 01:58:00,2.5,-1.2,30.36,WSW,254,0.0,1.0,84,0.00,,---,0.00,VWS V14.01,2013-02-16 07:58:00,
2013-02-16 02:03:00,2.5,-1.2,30.36,WSW,254,0.0,1.0,84,0.00,,---,0.00,VWS V14.01,2013-02-16 08:03:00,
2013-02-16 02:08:00,2.4,-1.3,30.36,WSW,254,0.0,1.0,84,0.00,,---,0.00,VWS V14.01,2013-02-16 08:08:00,
2013-02-16 02:13:00,2.4,-1.3,30.36,WSW,256,0.0,2.0,84,0.00,,---,0.00,VWS V14.01,2013-02-16 08:13:00,
2013-02-16 02:18:00,2.3,-1.4,30.36,WSW,256,0.0,2.0,84,0.00,,---,0.00,VWS V14.01,2013-02-16 08:18:00,
2013-02-16 02:23:00,2.1,-1.6,30.36,WSW,256,0.0,2.0,84,0.00,,---,0.00,VWS V14.01,2013-02-16 08:23:00,
2013-02-16 02:28:00,1.8,-1.9,30.36,WSW,256,0.0,0.0,84,0.00,,---,0.00,VWS V14.01,2013-02-16 08:28:00,
2013-02-16 02:33:00,1.6,-2.1,30.36,WSW,256,0.0,0.0,84,0.00,,---,0.00,VWS V14.01,2013-02-16 08:33:00,
2013-02-16 02:38:00,1.4,-2.3,30.36,WSW,256,0.0,0.0,84,0.00,,---,0.00,VWS V14.01,2013-02-16 08:38:00,
2013-02-16 02:43:00,1.2,-2.5,30.36,WSW,256,0.0,0.0,84,0.00,,---,0.00,VWS V14.01,2013-02-16 08:43:00,
2013-02-16 02:48:00,1.1,-2.3,30.35,WSW,256,0.0,0.0,85,0.00,,---,0.00,VWS V14.01,2013-02-16 08:48:00,
2013-02-16 02:53:00,0.9,-2.8,30.36,WSW,256,0.0,0.0,84,0.00,,---,0.00,VWS V14.01,2013-02-16 08:53:00,
2013-02-16 02:58:00,0.7,-3.0,30.36,WSW,256,0.0,0.0,84,0.00,,---,0.00,VWS V14.01,2013-02-16 08:58:00,
2013-02-16 03:03:00,0.6,-2.8,30.35,WSW,256,0.0,0.0,85,0.00,,---,0.00,VWS V14.01,2013-02-16 09:03:00,
2013-02-16 03:08:00,0.6,-2.8,30.35,WSW,256,0.0,0.0,85,0.00,,---,0.00,VWS V14.01,2013-02-16 09:08:00,
2013-02-16 03:13:00,0.4,-3.0,30.35,WSW,256,0.0,0.0,85,0.00,,---,0.00,VWS V14.01,2013-02-16 09:13:00,
2013-02-16 03:18:00,0.2,-3.2,30.35,WSW,256,0.0,0.0,85,0.00,,---,0.00,VWS V14.01,2013-02-16 09:18:00,
2013-02-16 03:23:00,0.1,-3.4,30.35,WSW,256,0.0,0.0,85,0.00,,---,0.00,VWS V14.01,2013-02-16 09:23:00,
2013-02-16 03:28:00,-0.3,-3.7,30.35,WSW,256,0.0,0.0,85,0.00,,---,0.00,VWS V14.01,2013-02-16 09:28:00,
2013-02-16 03:33:00,-0.6,-4.0,30.34,WSW,256,0.0,0.0,85,0.00,,---,0.00,VWS V14.01,2013-02-16 09:33:00,
2013-02-16 03:38:00,-0.9,-4.3,30.34,WSW,256,0.0,0.0,85,0.00,,---,0.00,VWS V14.01,2013-02-16 09:38:00,
2013-02-16 03:42:00,-1.1,-4.5,30.34,WSW,256,0.0,0.0,85,0.00,,---,0.00,VWS V14.01,2013-02-16 09:42:00,
2013-02-16 03:47:00,-1.2,-4.6,30.33,WSW,256,0.0,0.0,85,0.00,,---,0.00,VWS V14.01,2013-02-16 09:47:00,
2013-02-16 03:52:00,-1.6,-5.0,30.33,WSW,256,0.0,0.0,85,0.00,,---,0.00,VWS V14.01,2013-02-16 09:52:00,
2013-02-16 03:57:00,-2.1,-5.5,30.33,WSW,256,0.0,0.0,85,0.00,,---,0.00,VWS V14.01,2013-02-16 09:57:00,
2013-02-16 04:02:00,-2.2,-5.3,30.33,WSW,256,0.0,0.0,86,0.00,,---,0.00,VWS V14.01,2013-02-16 10:02:00,
2013-02-16 04:07:00,-1.9,-4.8,30.34,WSW,256,0.0,0.0,87,0.00,,---,0.00,VWS V14.01,2013-02-16 10:07:00,
2013-02-16 04:12:00,-1.8,-4.7,30.33,WSW,256,0.0,0.0,87,0.00,,---,0.00,VWS V14.01,2013-02-16 10:12:00,
2013-02-16 04:17:00,-1.5,-4.4,30.33,WSW,256,0.0,0.0,87,0.00,,---,0.00,VWS V14.01,2013-02-16 10:17:00,
2013-02-16 04:22:00,-1.1,-4.0,30.33,WSW,256,0.0,0.0,87,0.00,,---,0.00,VWS V14.01,2013-02-16 10:22:00,
2013-02-16 04:27:00,-0.8,-3.5,30.33,WSW,256,0.0,0.0,88,0.00,,---,0.00,VWS V14.01,2013-02-16 10:27:00,
2013-02-16 04:32:00,-0.4,-3.1,30.33,WSW,256,0.0,0.0,88,0.00,,---,0.00,VWS V14.01,2013-02-16 10:32:00,
2013-02-16 04:37:00,-0.1,-2.7,30.33,West,268,0.0,2.0,88,0.00,,---,0.00,VWS V14.01,2013-02-16 10:37:00,
2013-02-16 04:42:00,0.4,-2.3,30.33,West,268,0.0,0.0,88,0.00,,---,0.00,VWS V14.01,2013-02-16 10:42:00,
2013-02-16 04:47:00,0.6,-2.3,30.33,West,268,0.0,0.0,87,0.00,,---,0.00,VWS V14.01,2013-02-16 10:47:00,
2013-02-16 04:52:00,0.8,-2.2,30.33,West,268,0.0,0.0,87,0.00,,---,0.00,VWS V14.01,2013-02-16 10:52:00,
2013-02-16 04:57:00,1.0,-2.0,30.33,West,268,0.0,0.0,87,0.00,,---,0.00,VWS V14.01,2013-02-16 10:57:00,
2013-02-16 05:02:00,1.2,-1.8,30.33,West,268,0.0,0.0,87,0.00,,---,0.00,VWS V14.01,2013-02-16 11:02:00,
2013-02-16 05:07:00,1.4,-1.6,30.33,West,268,0.0,0.0,87,0.00,,---,0.00,VWS V14.01,2013-02-16 11:07:00,
2013-02-16 05:12:00,1.5,-1.5,30.33,West,268,0.0,0.0,87,0.00,,---,0.00,VWS V14.01,2013-02-16 11:12:00,
2013-02-16 05:17:00,1.7,-1.3,30.33,West,268,0.0,0.0,87,0.00,,---,0.00,VWS V14.01,2013-02-16 11:17:00,
2013-02-16 05:22:00,1.8,-1.2,30.33,West,268,0.0,0.0,87,0.00,,---,0.00,VWS V14.01,2013-02-16 11:22:00,
2013-02-16 05:27:00,1.8,-1.2,30.33,West,268,0.0,0.0,87,0.00,,---,0.00,VWS V14.01,2013-02-16 11:27:00,
2013-02-16 05:32:00,1.9,-1.1,30.33,West,268,0.0,1.0,87,0.00,,---,0.00,VWS V14.01,2013-02-16 11:32:00,
2013-02-16 05:37:00,2.1,-0.9,30.33,West,268,0.0,1.0,87,0.00,,---,0.00,VWS V14.01,2013-02-16 11:37:00,
2013-02-16 05:42:00,2.2,-0.8,30.33,West,268,0.0,0.0,87,0.00,,---,0.00,VWS V14.01,2013-02-16 11:42:00,
2013-02-16 05:47:00,2.2,-0.8,30.33,West,275,1.0,1.0,87,0.00,,---,0.00,VWS V14.01,2013-02-16 11:47:00,
2013-02-16 05:52:00,2.4,-0.6,30.33,West,275,0.0,1.0,87,0.00,,---,0.00,VWS V14.01,2013-02-16 11:52:00,
2013-02-16 05:57:00,2.5,-0.5,30.33,West,275,0.0,0.0,87,0.00,,---,0.00,VWS V14.01,2013-02-16 11:57:00,
2013-02-16 06:02:00,2.6,-0.4,30.33,West,274,0.0,2.0,87,0.00,,---,0.00,VWS V14.01,2013-02-16 12:02:00,
2013-02-16 06:07:00,2.6,-0.4,30.33,West,274,0.0,2.0,87,0.00,,---,0.00,VWS V14.01,2013-02-16 12:07:00,
2013-02-16 06:12:00,2.8,-0.2,30.33,West,274,1.0,1.0,87,0.00,,---,0.00,VWS V14.01,2013-02-16 12:12:00,
2013-02-16 06:17:00,2.9,-0.1,30.33,West,274,0.0,1.0,87,0.00,,---,0.00,VWS V14.01,2013-02-16 12:17:00,
2013-02-16 06:22:00,3.0,0.0,30.33,West,274,0.0,1.0,87,0.00,,---,0.00,VWS V14.01,2013-02-16 12:22:00,
2013-02-16 06:27:00,3.0,0.0,30.33,West,274,0.0,1.0,87,0.00,,---,0.00,VWS V14.01,2013-02-16 12:27:00,
2013-02-16 06:32:00,3.1,0.1,30.33,West,274,0.0,2.0,87,0.00,,---,0.00,VWS V14.01,2013-02-16 12:32:00,
2013-02-16 06:37:00,3.1,0.1,30.33,West,274,0.0,2.0,87,0.00,,---,0.00,VWS V14.01,2013-02-16 12:37:00,
2013-02-16 06:42:00,3.1,0.1,30.33,West,274,0.0,1.0,87,0.00,,---,0.00,VWS V14.01,2013-02-16 12:42:00,
2013-02-16 06:47:00,3.1,0.1,30.32,West,274,0.0,1.0,87,0.00,,---,0.00,VWS V14.01,2013-02-16 12:47:00,
2013-02-16 06:52:00,3.1,0.1,30.32,West,274,0.0,1.0,87,0.00,,---,0.00,VWS V14.01,2013-02-16 12:52:00,
2013-02-16 06:57:00,3.0,-0.2,30.32,West,274,0.0,0.0,86,0.00,,---,0.00,VWS V14.01,2013-02-16 12:57:00,
2013-02-16 07:02:00,2.8,-0.4,30.32,West,274,0.0,0.0,86,0.00,,---,0.00,VWS V14.01,2013-02-16 13:02:00,
2013-02-16 07:07:00,2.6,-0.6,30.33,West,273,0.0,0.0,86,0.00,,---,0.00,VWS V14.01,2013-02-16 13:07:00,
2013-02-16 07:12:00,2.4,-0.8,30.32,West,274,0.0,0.0,86,0.00,,---,0.00,VWS V14.01,2013-02-16 13:12:00,
2013-02-16 07:17:00,2.3,-0.9,30.32,West,274,0.0,0.0,86,0.00,,---,0.00,VWS V14.01,2013-02-16 13:17:00,
2013-02-16 07:22:00,2.2,-1.0,30.33,West,274,0.0,0.0,86,0.00,,---,0.00,VWS V14.01,2013-02-16 13:22:00,
2013-02-16 07:27:00,2.2,-0.8,30.33,West,274,0.0,0.0,87,0.00,,---,0.00,VWS V14.01,2013-02-16 13:27:00,
2013-02-16 07:32:00,2.1,-0.9,30.33,West,274,0.0,0.0,87,0.00,,---,0.00,VWS V14.01,2013-02-16 13:32:00,
2013-02-16 07:37:00,2.2,-0.8,30.33,West,274,0.0,1.0,87,0.00,,---,0.00,VWS V14.01,2013-02-16 13:37:00,
2013-02-16 07:42:00,2.2,-0.8,30.33,West,274,0.0,1.0,87,0.00,,---,0.00,VWS V14.01,2013-02-16 13:42:00,
2013-02-16 07:47:00,2.3,-0.7,30.33,West,274,0.0,1.0,87,0.00,,---,0.00,VWS V14.01,2013-02-16 13:47:00,
2013-02-16 07:52:00,2.3,-0.7,30.33,West,274,0.0,1.0,87,0.00,,---,0.00,VWS V14.01,2013-02-16 13:52:00,
2013-02-16 07:57:00,2.3,-0.7,30.33,West,274,0.0,0.0,87,0.00,,---,0.00,VWS V14.01,2013-02-16 13:57:00,
2013-02-16 08:02:00,2.3,-0.7,30.33,West,273,0.0,0.0,87,0.00,,---,0.00,VWS V14.01,2013-02-16 14:02:00,
2013-02-16 08:07:00,2.4,-0.6,30.33,West,274,1.0,1.0,87,0.00,,---,0.00,VWS V14.01,2013-02-16 14:07:00,
2013-02-16 08:12:00,2.8,0.1,30.33,West,274,2.0,2.0,88,0.00,,---,0.00,VWS V14.01,2013-02-16 14:12:00,
2013-02-16 08:17:00,3.2,0.4,30.33,West,274,0.0,2.0,88,0.00,,---,0.00,VWS V14.01,2013-02-16 14:17:00,
2013-02-16 08:22:00,3.6,0.9,30.33,West,273,0.0,2.0,88,0.00,,---,0.00,VWS V14.01,2013-02-16 14:22:00,
2013-02-16 08:27:00,4.1,1.3,30.33,West,268,0.0,0.0,88,0.00,,---,0.00,VWS V14.01,2013-02-16 14:27:00,
2013-02-16 08:32:00,4.6,1.8,30.33,WSW,254,3.0,3.0,88,0.00,,---,0.00,VWS V14.01,2013-02-16 14:32:00,
2013-02-16 08:37:00,4.8,1.8,30.33,WSW,258,0.0,3.0,87,0.00,,---,0.00,VWS V14.01,2013-02-16 14:37:00,
2013-02-16 08:42:00,5.1,2.1,30.33,West,263,0.0,1.0,87,0.00,,---,0.00,VWS V14.01,2013-02-16 14:42:00,
2013-02-16 08:47:00,5.4,2.4,30.33,West,263,1.0,2.0,87,0.00,,---,0.00,VWS V14.01,2013-02-16 14:47:00,
2013-02-16 08:52:00,5.9,2.9,30.33,WSW,249,0.0,2.0,87,0.00,,---,0.00,VWS V14.01,2013-02-16 14:52:00,
2013-02-16 08:57:00,6.5,3.5,30.33,West,279,0.0,1.0,87,0.00,,---,0.00,VWS V14.01,2013-02-16 14:57:00,
2013-02-16 09:02:00,6.8,3.5,30.33,WSW,243,2.0,3.0,86,0.00,,---,0.00,VWS V14.01,2013-02-16 15:02:00,
2013-02-16 09:07:00,7.0,3.5,30.33,West,270,1.0,3.0,85,0.00,,---,0.00,VWS V14.01,2013-02-16 15:07:00,
2013-02-16 09:12:00,7.4,3.8,30.32,West,271,0.0,0.0,85,0.00,,---,0.00,VWS V14.01,2013-02-16 15:12:00,
2013-02-16 09:17:00,7.9,4.3,30.32,West,270,0.0,1.0,85,0.00,,---,0.00,VWS V14.01,2013-02-16 15:17:00,
2013-02-16 09:22:00,8.8,5.2,30.32,West,273,0.0,1.0,85,0.00,,---,0.00,VWS V14.01,2013-02-16 15:22:00,
2013-02-16 09:27:00,9.4,5.6,30.32,NW,309,0.0,0.0,84,0.00,,---,0.00,VWS V14.01,2013-02-16 15:27:00,
2013-02-16 09:32:00,9.6,5.2,30.32,NW,308,0.0,1.0,82,0.00,,---,0.00,VWS V14.01,2013-02-16 15:32:00,
2013-02-16 09:37:00,10.0,5.6,30.32,West,277,1.0,2.0,82,0.00,,---,0.00,VWS V14.01,2013-02-16 15:37:00,
2013-02-16 09:42:00,10.3,5.6,30.32,West,278,0.0,0.0,81,0.00,,---,0.00,VWS V14.01,2013-02-16 15:42:00,
2013-02-16 09:47:00,10.4,5.5,30.32,WNW,287,1.0,3.0,80,0.00,,---,0.00,VWS V14.01,2013-02-16 15:47:00,
2013-02-16 09:52:00,10.2,5.0,30.32,West,275,1.0,3.0,79,0.00,,---,0.00,VWS V14.01,2013-02-16 15:52:00,
2013-02-16 09:57:00,11.0,6.1,30.32,WNW,299,0.0,0.0,80,0.00,,---,0.00,VWS V14.01,2013-02-16 15:57:00,
2013-02-16 10:02:00,12.0,7.0,30.32,WNW,293,1.0,2.0,80,0.00,,---,0.00,VWS V14.01,2013-02-16 16:02:00,
2013-02-16 10:07:00,12.2,6.4,30.32,WNW,294,0.0,2.0,77,0.00,,---,0.00,VWS V14.01,2013-02-16 16:07:00,
2013-02-16 10:12:00,12.5,6.7,30.32,WNW,294,0.0,0.0,77,0.00,,---,0.00,VWS V14.01,2013-02-16 16:12:00,
2013-02-16 10:17:00,13.2,7.3,30.32,WNW,296,0.0,1.0,77,0.00,,---,0.00,VWS V14.01,2013-02-16 16:17:00,
2013-02-16 10:22:00,13.5,7.1,30.31,WNW,292,0.0,2.0,75,0.00,,---,0.00,VWS V14.01,2013-02-16 16:22:00,
2013-02-16 10:27:00,13.7,7.0,30.31,WNW,296,0.0,1.0,74,0.00,,---,0.00,VWS V14.01,2013-02-16 16:27:00,
2013-02-16 10:32:00,14.2,7.7,30.31,WNW,294,0.0,1.0,75,0.00,,---,0.00,VWS V14.01,2013-02-16 16:32:00,
2013-02-16 10:37:00,14.7,7.6,30.31,WNW,299,0.0,1.0,73,0.00,,---,0.00,VWS V14.01,2013-02-16 16:37:00,
2013-02-16 10:42:00,15.0,7.6,30.31,WNW,296,0.0,0.0,72,0.00,,---,0.00,VWS V14.01,2013-02-16 16:42:00,
2013-02-16 10:47:00,15.5,7.8,30.31,WNW,296,0.0,0.0,71,0.00,,---,0.00,VWS V14.01,2013-02-16 16:47:00,
2013-02-16 10:52:00,15.1,6.8,30.31,WNW,299,0.0,2.0,69,0.00,,---,0.00,VWS V14.01,2013-02-16 16:52:00,
2013-02-16 10:57:00,13.7,5.4,30.31,North,353,1.0,1.0,69,0.00,,---,0.00,VWS V14.01,2013-02-16 16:57:00,
2013-02-16 11:02:00,13.3,6.0,30.31,NNW,333,0.0,1.0,72,0.00,,---,0.00,VWS V14.01,2013-02-16 17:02:00,
2013-02-16 11:07:00,14.1,6.8,30.31,West,270,0.0,2.0,72,0.00,,---,0.00,VWS V14.01,2013-02-16 17:07:00,
2013-02-16 11:12:00,14.0,6.0,30.31,NNW,343,1.0,1.0,70,0.00,,---,0.00,VWS V14.01,2013-02-16 17:12:00,
2013-02-16 11:17:00,13.6,6.0,30.31,NNW,342,0.0,1.0,71,0.00,,---,0.00,VWS V14.01,2013-02-16 17:17:00,
2013-02-16 11:22:00,14.7,7.3,30.30,WNW,283,0.0,2.0,72,0.00,,---,0.00,VWS V14.01,2013-02-16 17:22:00,
2013-02-16 11:27:00,15.6,7.3,30.30,West,277,1.0,1.0,69,0.00,,---,0.00,VWS V14.01,2013-02-16 17:27:00,
2013-02-16 11:32:00,16.1,7.7,30.30,West,277,1.0,1.0,69,0.00,,---,0.00,VWS V14.01,2013-02-16 17:32:00,
2013-02-16 11:37:00,16.8,7.8,30.30,ENE,65,0.0,4.0,67,0.00,,---,0.00,VWS V14.01,2013-02-16 17:37:00,
2013-02-16 11:42:00,16.7,7.7,30.30,SE,134,0.0,3.0,67,0.00,,---,0.00,VWS V14.01,2013-02-16 17:42:00,
2013-02-16 11:47:00,16.4,7.0,30.30,West,265,1.0,3.0,66,0.00,,---,0.00,VWS V14.01,2013-02-16 17:47:00,
2013-02-16 11:52:00,17.0,7.9,30.31,NNW,342,1.0,3.0,67,0.00,,---,0.00,VWS V14.01,2013-02-16 17:52:00,
2013-02-16 11:57:00,16.6,7.2,30.30,NW,313,0.0,1.0,66,0.00,,---,0.00,VWS V14.01,2013-02-16 17:57:00,
2013-02-16 12:02:00,17.3,8.6,30.30,SW,219,1.0,2.0,68,0.00,,---,0.00,VWS V14.01,2013-02-16 18:02:00,
2013-02-16 12:07:00,17.2,7.5,30.30,ESE,106,1.0,4.0,65,0.00,,---,0.00,VWS V14.01,2013-02-16 18:07:00,
2013-02-16 12:12:00,16.8,7.1,30.30,ESE,121,2.0,2.0,65,0.00,,---,0.00,VWS V14.01,2013-02-16 18:12:00,
2013-02-16 12:17:00,16.7,7.3,30.29,ENE,62,0.0,3.0,66,0.00,,---,0.00,VWS V14.01,2013-02-16 18:17:00,
2013-02-16 12:22:00,17.2,8.1,30.29,ENE,62,0.0,3.0,67,0.00,,---,0.00,VWS V14.01,2013-02-16 18:22:00,
2013-02-16 12:27:00,17.9,8.1,30.29,North,4,2.0,2.0,65,0.00,,---,0.00,VWS V14.01,2013-02-16 18:27:00,
2013-02-16 12:32:00,17.7,7.6,30.29,SE,144,1.0,3.0,64,0.00,,---,0.00,VWS V14.01,2013-02-16 18:32:00,
2013-02-16 12:37:00,17.8,7.3,30.29,SE,141,0.0,4.0,63,0.00,,---,0.00,VWS V14.01,2013-02-16 18:37:00,
2013-02-16 12:42:00,18.1,8.0,30.29,SE,137,1.0,2.0,64,0.00,,---,0.00,VWS V14.01,2013-02-16 18:42:00,
2013-02-16 12:47:00,18.1,8.0,30.28,ENE,68,1.0,3.0,64,0.00,,---,0.00,VWS V14.01,2013-02-16 18:47:00,
2013-02-16 12:52:00,18.9,8.8,30.28,WNW,282,0.0,3.0,64,0.00,,---,0.00,VWS V14.01,2013-02-16 18:52:00,
2013-02-16 12:57:00,19.6,8.7,30.28,NW,321,1.0,1.0,62,0.00,,---,0.00,VWS V14.01,2013-02-16 18:57:00,
2013-02-16 13:02:00,19.5,8.3,30.28,NNE,16,0.0,2.0,61,0.00,,---,0.00,VWS V14.01,2013-02-16 19:02:00,
2013-02-16 13:07:00,18.9,7.3,30.29,ENE,57,1.0,3.0,60,0.00,,---,0.00,VWS V14.01,2013-02-16 19:07:00,
2013-02-16 13:12:00,18.3,7.1,30.28,NE,53,1.0,1.0,61,0.00,,---,0.00,VWS V14.01,2013-02-16 19:12:00,
2013-02-16 13:17:00,18.2,7.4,30.27,ENE,69,2.0,3.0,62,0.00,,---,0.00,VWS V14.01,2013-02-16 19:17:00,
2013-02-16 13:22:00,18.1,7.3,30.27,North,7,1.0,3.0,62,0.00,,---,0.00,VWS V14.01,2013-02-16 19:22:00,
2013-02-16 13:27:00,18.8,8.3,30.27,North,351,0.0,0.0,63,0.00,,---,0.00,VWS V14.01,2013-02-16 19:27:00,
2013-02-16 13:32:00,18.6,7.0,30.27,North,351,1.0,4.0,60,0.00,,---,0.00,VWS V14.01,2013-02-16 19:32:00,
2013-02-16 13:37:00,18.1,7.3,30.27,NNW,348,2.0,4.0,62,0.00,,---,0.00,VWS V14.01,2013-02-16 19:37:00,
2013-02-16 13:42:00,18.3,7.5,30.27,ENE,76,0.0,1.0,62,0.00,,---,0.00,VWS V14.01,2013-02-16 19:42:00,
2013-02-16 13:47:00,18.5,7.7,30.27,West,280,0.0,3.0,62,0.00,,---,0.00,VWS V14.01,2013-02-16 19:47:00,
2013-02-16 13:52:00,19.8,9.3,30.26,West,279,0.0,3.0,63,0.00,,---,0.00,VWS V14.01,2013-02-16 19:52:00,
2013-02-16 13:57:00,21.4,10.1,30.26,West,279,1.0,1.0,61,0.00,,---,0.00,VWS V14.01,2013-02-16 19:57:00,
2013-02-16 14:02:00,21.8,8.9,30.26,North,7,0.0,2.0,57,0.00,,---,0.00,VWS V14.01,2013-02-16 20:02:00,
2013-02-16 14:07:00,21.7,9.2,30.26,SE,128,2.0,3.0,58,0.00,,---,0.00,VWS V14.01,2013-02-16 20:07:00,
2013-02-16 14:12:00,21.6,9.1,30.25,SSE,162,1.0,2.0,58,0.00,,---,0.00,VWS V14.01,2013-02-16 20:12:00,
2013-02-16 14:17:00,20.9,7.7,30.25,NNW,345,1.0,4.0,56,0.00,,---,0.00,VWS V14.01,2013-02-16 20:17:00,
2013-02-16 14:22:00,20.5,8.5,30.25,NE,50,1.0,4.0,59,0.00,,---,0.00,VWS V14.01,2013-02-16 20:22:00,
2013-02-16 14:27:00,20.4,8.4,30.25,ESE,116,3.0,3.0,59,0.00,,---,0.00,VWS V14.01,2013-02-16 20:27:00,
2013-02-16 14:32:00,20.4,8.7,30.25,ENE,75,2.0,3.0,60,0.00,,---,0.00,VWS V14.01,2013-02-16 20:32:00,
2013-02-16 14:37:00,20.5,8.5,30.25,SW,216,0.0,3.0,59,0.00,,---,0.00,VWS V14.01,2013-02-16 20:37:00,
2013-02-16 14:42:00,21.1,8.6,30.25,ENE,67,0.0,0.0,58,0.00,,---,0.00,VWS V14.01,2013-02-16 20:42:00,
2013-02-16 14:47:00,21.2,8.4,30.25,ENE,62,2.0,3.0,57,0.00,,---,0.00,VWS V14.01,2013-02-16 20:47:00,
2013-02-16 14:52:00,20.7,7.9,30.25,ENE,69,1.0,3.0,57,0.00,,---,0.00,VWS V14.01,2013-02-16 20:52:00,
2013-02-16 14:57:00,20.3,7.5,30.26,NNE,29,1.0,1.0,57,0.00,,---,0.00,VWS V14.01,2013-02-16 20:57:00,
2013-02-16 15:02:00,20.3,7.9,30.26,ESE,123,0.0,2.0,58,0.00,,---,0.00,VWS V14.01,2013-02-16 21:02:00,
2013-02-16 15:07:00,20.8,8.8,30.26,SSW,197,0.0,3.0,59,0.00,,---,0.00,VWS V14.01,2013-02-16 21:07:00,
2013-02-16 15:12:00,21.3,8.8,30.25,SE,127,1.0,1.0,58,0.00,,---,0.00,VWS V14.01,2013-02-16 21:12:00,
2013-02-16 15:17:00,21.3,8.4,30.25,ENE,78,2.0,2.0,57,0.00,,---,0.00,VWS V14.01,2013-02-16 21:17:00,
2013-02-16 15:22:00,21.1,8.3,30.25,ESE,123,1.0,2.0,57,0.00,,---,0.00,VWS V14.01,2013-02-16 21:22:00,
2013-02-16 15:27:00,20.7,7.5,30.25,NE,50,1.0,1.0,56,0.00,,---,0.00,VWS V14.01,2013-02-16 21:27:00,
2013-02-16 15:32:00,20.4,8.0,30.25,SSW,194,1.0,3.0,58,0.00,,---,0.00,VWS V14.01,2013-02-16 21:32:00,
2013-02-16 15:37:00,20.5,8.1,30.25,South,187,2.0,3.0,58,0.00,,---,0.00,VWS V14.01,2013-02-16 21:37:00,
2013-02-16 15:42:00,20.9,8.1,30.25,South,191,0.0,0.0,57,0.00,,---,0.00,VWS V14.01,2013-02-16 21:42:00,
2013-02-16 15:47:00,20.9,8.5,30.25,South,190,2.0,2.0,58,0.00,,---,0.00,VWS V14.01,2013-02-16 21:47:00,
2013-02-16 15:52:00,20.8,8.4,30.25,SE,125,2.0,4.0,58,0.00,,---,0.00,VWS V14.01,2013-02-16 21:52:00,
2013-02-16 15:57:00,20.1,8.1,30.25,ENE,74,1.0,1.0,59,0.00,,---,0.00,VWS V14.01,2013-02-16 21:57:00,
2013-02-16 16:02:00,20.1,8.5,30.25,SE,145,2.0,4.0,60,0.00,,---,0.00,VWS V14.01,2013-02-16 22:02:00,
2013-02-16 16:07:00,19.9,8.6,30.25,ESE,106,1.0,4.0,61,0.00,,---,0.00,VWS V14.01,2013-02-16 22:07:00,
2013-02-16 16:12:00,19.9,8.6,30.25,ESE,120,1.0,4.0,61,0.00,,---,0.00,VWS V14.01,2013-02-16 22:12:00,
2013-02-16 16:17:00,20.0,8.7,30.25,South,191,4.0,4.0,61,0.00,,---,0.00,VWS V14.01,2013-02-16 22:17:00,
2013-02-16 16:22:00,20.0,8.4,30.25,ESE,116,1.0,4.0,60,0.00,,---,0.00,VWS V14.01,2013-02-16 22:22:00,
2013-02-16 16:27:00,19.7,8.4,30.25,SE,137,1.0,1.0,61,0.00,,---,0.00,VWS V14.01,2013-02-16 22:27:00,
2013-02-16 16:32:00,19.4,8.2,30.25,SSE,147,2.0,3.0,61,0.00,,---,0.00,VWS V14.01,2013-02-16 22:32:00,
2013-02-16 16:37:00,18.9,7.7,30.25,SE,133,2.0,3.0,61,0.00,,---,0.00,VWS V14.01,2013-02-16 22:37:00,
2013-02-16 16:42:00,18.6,7.8,30.26,East,88,1.0,3.0,62,0.00,,---,0.00,VWS V14.01,2013-02-16 22:42:00,
2013-02-16 16:47:00,18.3,7.8,30.26,ESE,109,1.0,3.0,63,0.00,,---,0.00,VWS V14.01,2013-02-16 22:47:00,
2013-02-16 16:52:00,17.9,7.4,30.26,SSE,151,2.0,3.0,63,0.00,,---,0.00,VWS V14.01,2013-02-16 22:52:00,
2013-02-16 16:57:00,17.5,7.4,30.26,ESE,112,1.0,3.0,64,0.00,,---,0.00,VWS V14.01,2013-02-16 22:57:00,
2013-02-16 17:02:00,17.3,7.6,30.26,East,98,1.0,2.0,65,0.00,,---,0.00,VWS V14.01,2013-02-16 23:02:00,
2013-02-16 17:07:00,17.1,7.4,30.26,East,90,2.0,3.0,65,0.00,,---,0.00,VWS V14.01,2013-02-16 23:07:00,
2013-02-16 17:12:00,16.8,7.4,30.26,East,90,0.0,3.0,66,0.00,,---,0.00,VWS V14.01,2013-02-16 23:12:00,
2013-02-16 17:17:00,16.4,7.0,30.26,ENE,67,3.0,4.0,66,0.00,,---,0.00,VWS V14.01,2013-02-16 23:17:00,
2013-02-16 17:22:00,15.9,6.6,30.26,SSW,206,1.0,4.0,66,0.00,,---,0.00,VWS V14.01,2013-02-16 23:22:00,
2013-02-16 17:27:00,15.6,6.6,30.26,SSW,206,0.0,4.0,67,0.00,,---,0.00,VWS V14.01,2013-02-16 23:27:00,
2013-02-16 17:32:00,15.1,6.5,30.27,SW,229,1.0,2.0,68,0.00,,---,0.00,VWS V14.01,2013-02-16 23:32:00,
2013-02-16 17:37:00,14.7,6.1,30.27,East,93,0.0,3.0,68,0.00,,---,0.00,VWS V14.01,2013-02-16 23:37:00,
2013-02-16 17:42:00,14.3,6.0,30.27,East,93,0.0,3.0,69,0.00,,---,0.00,VWS V14.01,2013-02-16 23:42:00,
2013-02-16 17:47:00,14.0,5.7,30.27,East,83,1.0,1.0,69,0.00,,---,0.00,VWS V14.01,2013-02-16 23:47:00,
2013-02-16 17:52:00,13.5,5.6,30.27,East,83,0.0,1.0,70,0.00,,---,0.00,VWS V14.01,2013-02-16 23:52:00,
2013-02-16 17:57:00,12.9,5.0,30.26,East,83,0.0,1.0,70,0.00,,---,0.00,VWS V14.01,2013-02-16 23:57:00,
2013-02-16 18:02:00,12.6,5.0,30.26,East,83,0.0,1.0,71,0.00,,---,0.00,VWS V14.01,2013-02-17 00:02:00,
2013-02-16 18:07:00,12.3,5.0,30.26,East,83,0.0,1.0,72,0.00,,---,0.00,VWS V14.01,2013-02-17 00:07:00,
2013-02-16 18:12:00,11.9,4.6,30.26,East,83,0.0,1.0,72,0.00,,---,0.00,VWS V14.01,2013-02-17 00:12:00,
2013-02-16 18:17:00,11.6,4.6,30.26,East,83,0.0,0.0,73,0.00,,---,0.00,VWS V14.01,2013-02-17 00:17:00,
2013-02-16 18:22:00,11.4,4.4,30.26,SE,128,0.0,2.0,73,0.00,,---,0.00,VWS V14.01,2013-02-17 00:22:00,
2013-02-16 18:27:00,11.1,4.4,30.26,SE,128,0.0,2.0,74,0.00,,---,0.00,VWS V14.01,2013-02-17 00:27:00,
2013-02-16 18:32:00,10.9,4.2,30.27,SE,128,0.0,0.0,74,0.00,,---,0.00,VWS V14.01,2013-02-17 00:32:00,
2013-02-16 18:37:00,10.7,4.1,30.27,East,89,0.0,2.0,74,0.00,,---,0.00,VWS V14.01,2013-02-17 00:37:00,
2013-02-16 18:42:00,10.4,4.1,30.27,East,89,0.0,2.0,75,0.00,,---,0.00,VWS V14.01,2013-02-17 00:42:00,
2013-02-16 18:47:00,9.9,3.3,30.27,East,89,0.0,0.0,74,0.00,,---,0.00,VWS V14.01,2013-02-17 00:47:00,
2013-02-16 18:52:00,9.6,3.3,30.26,East,89,0.0,0.0,75,0.00,,---,0.00,VWS V14.01,2013-02-17 00:52:00,
2013-02-16 18:57:00,9.4,3.1,30.26,East,89,0.0,0.0,75,0.00,,---,0.00,VWS V14.01,2013-02-17 00:57:00,
2013-02-16 19:02:00,9.1,3.1,30.26,East,89,0.0,0.0,76,0.00,,---,0.00,VWS V14.01,2013-02-17 01:02:00,
2013-02-16 19:07:00,8.9,2.9,30.26,East,89,0.0,0.0,76,0.00,,---,0.00,VWS V14.01,2013-02-17 01:07:00,
2013-02-16 19:12:00,8.4,2.1,30.26,East,89,0.0,0.0,75,0.00,,---,0.00,VWS V14.01,2013-02-17 01:12:00,
2013-02-16 19:17:00,8.1,2.1,30.26,East,89,0.0,0.0,76,0.00,,---,0.00,VWS V14.01,2013-02-17 01:17:00,
2013-02-16 19:22:00,8.2,2.5,30.26,East,89,0.0,0.0,77,0.00,,---,0.00,VWS V14.01,2013-02-17 01:22:00,
2013-02-16 19:27:00,8.2,2.8,30.26,East,89,0.0,0.0,78,0.00,,---,0.00,VWS V14.01,2013-02-17 01:27:00,
2013-02-16 19:32:00,8.0,2.6,30.25,East,89,0.0,0.0,78,0.00,,---,0.00,VWS V14.01,2013-02-17 01:32:00,
2013-02-16 19:37:00,7.8,2.4,30.25,East,89,0.0,0.0,78,0.00,,---,0.00,VWS V14.01,2013-02-17 01:37:00,
2013-02-16 19:42:00,7.6,2.5,30.25,East,89,0.0,0.0,79,0.00,,---,0.00,VWS V14.01,2013-02-17 01:42:00,
2013-02-16 19:47:00,7.4,2.3,30.25,East,89,0.0,0.0,79,0.00,,---,0.00,VWS V14.01,2013-02-17 01:47:00,
2013-02-16 19:52:00,7.2,2.1,30.25,East,89,0.0,0.0,79,0.00,,---,0.00,VWS V14.01,2013-02-17 01:52:00,
2013-02-16 19:57:00,6.9,1.8,30.25,East,89,0.0,0.0,79,0.00,,---,0.00,VWS V14.01,2013-02-17 01:57:00,
2013-02-16 20:02:00,6.5,1.4,30.25,East,89,0.0,0.0,79,0.00,,---,0.00,VWS V14.01,2013-02-17 02:02:00,
2013-02-16 20:07:00,6.4,1.6,30.25,East,89,0.0,0.0,80,0.00,,---,0.00,VWS V14.01,2013-02-17 02:07:00,
2013-02-16 20:12:00,6.4,1.8,30.25,East,89,0.0,0.0,81,0.00,,---,0.00,VWS V14.01,2013-02-17 02:12:00,
2013-02-16 20:17:00,6.5,1.9,30.25,East,89,0.0,1.0,81,0.00,,---,0.00,VWS V14.01,2013-02-17 02:17:00,
2013-02-16 20:21:00,6.9,2.8,30.25,East,89,0.0,1.0,83,0.00,,---,0.00,VWS V14.01,2013-02-17 02:21:00,
2013-02-16 20:26:00,6.9,2.6,30.25,East,89,0.0,1.0,82,0.00,,---,0.00,VWS V14.01,2013-02-17 02:26:00,
2013-02-16 20:31:00,6.7,2.4,30.25,East,89,0.0,0.0,82,0.00,,---,0.00,VWS V14.01,2013-02-17 02:31:00,
2013-02-16 20:36:00,6.2,1.9,30.25,East,89,0.0,0.0,82,0.00,,---,0.00,VWS V14.01,2013-02-17 02:36:00,
2013-02-16 20:41:00,5.8,1.5,30.26,East,89,0.0,0.0,82,0.00,,---,0.00,VWS V14.01,2013-02-17 02:41:00,
2013-02-16 20:46:00,5.7,1.4,30.26,East,89,0.0,0.0,82,0.00,,---,0.00,VWS V14.01,2013-02-17 02:46:00,
2013-02-16 20:51:00,5.9,1.9,30.26,East,89,0.0,0.0,83,0.00,,---,0.00,VWS V14.01,2013-02-17 02:51:00,
2013-02-16 20:56:00,6.0,2.2,30.26,East,89,0.0,0.0,84,0.00,,---,0.00,VWS V14.01,2013-02-17 02:56:00,
2013-02-16 21:01:00,6.1,2.3,30.26,East,89,0.0,0.0,84,0.00,,---,0.00,VWS V14.01,2013-02-17 03:01:00,
2013-02-16 21:06:00,5.9,1.9,30.26,East,89,0.0,0.0,83,0.00,,---,0.00,VWS V14.01,2013-02-17 03:06:00,
2013-02-16 21:11:00,5.7,1.9,30.26,East,89,0.0,0.0,84,0.00,,---,0.00,VWS V14.01,2013-02-17 03:11:00,
2013-02-16 21:16:00,5.8,2.0,30.26,East,89,0.0,0.0,84,0.00,,---,0.00,VWS V14.01,2013-02-17 03:16:00,
2013-02-16 21:21:00,5.6,1.8,30.26,East,89,0.0,0.0,84,0.00,,---,0.00,VWS V14.01,2013-02-17 03:21:00,
2013-02-16 21:26:00,5.1,1.3,30.26,East,89,0.0,0.0,84,0.00,,---,0.00,VWS V14.01,2013-02-17 03:26:00,
2013-02-16 21:31:00,4.8,1.0,30.26,East,88,0.0,0.0,84,0.00,,---,0.00,VWS V14.01,2013-02-17 03:31:00,
2013-02-16 21:36:00,4.4,0.6,30.26,East,88,0.0,0.0,84,0.00,,---,0.00,VWS V14.01,2013-02-17 03:36:00,
2013-02-16 21:41:00,4.3,0.6,30.26,East,88,0.0,0.0,84,0.00,,---,0.00,VWS V14.01,2013-02-17 03:41:00,
2013-02-16 21:46:00,4.2,0.4,30.25,East,88,0.0,0.0,84,0.00,,---,0.00,VWS V14.01,2013-02-17 03:46:00,
2013-02-16 21:51:00,4.1,0.3,30.25,East,88,0.0,0.0,84,0.00,,---,0.00,VWS V14.01,2013-02-17 03:51:00,
2013-02-16 21:56:00,3.9,0.2,30.25,East,88,0.0,0.0,84,0.00,,---,0.00,VWS V14.01,2013-02-17 03:56:00,
2013-02-16 22:01:00,3.9,0.4,30.25,East,88,0.0,0.0,85,0.00,,---,0.00,VWS V14.01,2013-02-17 04:01:00,
2013-02-16 22:06:00,3.9,0.4,30.25,East,88,0.0,0.0,85,0.00,,---,0.00,VWS V14.01,2013-02-17 04:06:00,
2013-02-16 22:11:00,4.0,0.5,30.25,East,88,0.0,0.0,85,0.00,,---,0.00,VWS V14.01,2013-02-17 04:11:00,
2013-02-16 22:16:00,3.9,0.4,30.25,East,88,0.0,0.0,85,0.00,,---,0.00,VWS V14.01,2013-02-17 04:16:00,
2013-02-16 22:21:00,3.8,0.3,30.25,East,87,0.0,0.0,85,0.00,,---,0.00,VWS V14.01,2013-02-17 04:21:00,
2013-02-16 22:26:00,3.7,0.2,30.25,East,88,0.0,0.0,85,0.00,,---,0.00,VWS V14.01,2013-02-17 04:26:00,
2013-02-16 22:31:00,3.6,0.1,30.25,East,88,0.0,0.0,85,0.00,,---,0.00,VWS V14.01,2013-02-17 04:31:00,
2013-02-16 22:36:00,3.8,0.6,30.24,East,88,0.0,0.0,86,0.00,,---,0.00,VWS V14.01,2013-02-17 04:36:00,
2013-02-16 22:41:00,3.8,0.6,30.24,East,88,0.0,0.0,86,0.00,,---,0.00,VWS V14.01,2013-02-17 04:41:00,
2013-02-16 22:46:00,3.7,0.5,30.24,East,87,0.0,0.0,86,0.00,,---,0.00,VWS V14.01,2013-02-17 04:46:00,
2013-02-16 22:51:00,3.5,0.3,30.24,East,87,0.0,0.0,86,0.00,,---,0.00,VWS V14.01,2013-02-17 04:51:00,
2013-02-16 22:56:00,3.2,0.0,30.24,East,87,0.0,0.0,86,0.00,,---,0.00,VWS V14.01,2013-02-17 04:56:00,
2013-02-16 23:00:00,3.2,0.0,30.23,East,88,0.0,0.0,86,0.00,,---,0.00,VWS V14.01,2013-02-17 05:00:00,
2013-02-16 23:05:00,3.1,-0.1,30.23,East,88,0.0,0.0,86,0.00,,---,0.00,VWS V14.01,2013-02-17 05:05:00,
2013-02-16 23:10:00,3.4,0.4,30.23,East,88,0.0,0.0,87,0.00,,---,0.00,VWS V14.01,2013-02-17 05:10:00,
2013-02-16 23:15:00,3.6,0.6,30.23,East,88,0.0,0.0,87,0.00,,---,0.00,VWS V14.01,2013-02-17 05:15:00,
2013-02-16 23:20:00,3.5,0.3,30.23,East,88,0.0,0.0,86,0.00,,---,0.00,VWS V14.01,2013-02-17 05:20:00,
2013-02-16 23:25:00,3.2,0.0,30.23,East,88,0.0,0.0,86,0.00,,---,0.00,VWS V14.01,2013-02-17 05:25:00,
2013-02-16 23:30:00,3.1,0.1,30.23,East,88,0.0,0.0,87,0.00,,---,0.00,VWS V14.01,2013-02-17 05:30:00,
2013-02-16 23:35:00,3.7,0.9,30.23,East,88,0.0,0.0,88,0.00,,---,0.00,VWS V14.01,2013-02-17 05:35:00,
2013-02-16 23:40:00,3.9,0.9,30.22,East,87,0.0,0.0,87,0.00,,---,0.00,VWS V14.01,2013-02-17 05:40:00,
2013-02-16 23:45:00,4.0,1.0,30.22,East,88,0.0,0.0,87,0.00,,---,0.00,VWS V14.01,2013-02-17 05:45:00,
2013-02-16 23:50:00,4.2,1.4,30.22,East,88,0.0,0.0,88,0.00,,---,0.00,VWS V14.01,2013-02-17 05:50:00,
2013-02-16 23:55:00,4.2,1.4,30.22,East,88,0.0,0.0,88,0.00,,---,0.00,VWS V14.01,2013-02-17 05:55:00,